User: anonymous
Location: Unspecified
(0.0000°N, 0.0000°E)
Time: 09:23:42
(UTC+02:00)
Language:

Cosmos 1295 Rocket - Orbit

View from above orbital plane
View from above orbital plane
View from above satellite
View from above satellite

Ground track
Ground track

The orbit data is extracted from the following two-line orbital elements,

1 12682U 81077B   14211.13056730  .00000040  00000-0  23766-4 0  7390
2 12682 082.9156 083.7208 0035114 059.0635 049.5223 13.78445816657787
Epoch (UTC): 30 July 2014 03:08:01
Eccentricity: 0.0035114
inclination: 82.9156°
perigee height: 943 km
apogee height: 995 km
right ascension of ascending node: 83.7208°
argument of perigee: 59.0635°
revolutions per day: 13.78445816
mean anomaly at epoch: 49.5223°
orbit number at epoch: 65778

The dashed part of the orbit path shows where the satellite is in the earth's shadow,  

DLR